This demonstration page uses our WeatherBlox Daily Observations layout. Learn more.

Left ArrowRight Arrow

38.80484, -77.04692

Hourly Observations for September 2, 2020

Temp ( °F °C ) Dew Point ( °F °C ) Humidity (%) Winds ( mph kmh ) Pressure ( in mb ) Visibility ( mi km ) Precip ( " mm )
12:36 am 00:36 Cloudy 76 24.4 72 22.2 88 88 SSE 7 11 30.03 1017 10 16 N/A
12:52 am 00:52 Cloudy 76 24.4 71 21.7 85 85 SSE 7 11 30.02 1017 10 16 N/A
1:23 am 01:23 Cloudy 75 23.9 71 21.7 88 88 SE 7 11 30.01 1016 10 16 0.00 0.00
1:52 am 01:52 Cloudy 75 23.9 71 21.7 88 88 SSE 5 7 30.00 1016 10 16 0.00 0.00
2:52 am 02:52 Cloudy 75 23.9 71 21.7 88 88 SSE 6 9 29.98 1015 10 16 N/A
3:19 am 03:19 Cloudy 75 23.9 72 22.2 90 90 S 5 7 29.97 1015 10 16 N/A
3:52 am 03:52 Cloudy 75 23.9 72 22.2 90 90 SSE 7 11 29.96 1015 10 16 N/A
4:47 am 04:47 Cloudy 75 24 72 22 89 89 S 6 9 29.96 1014 10 16 N/A
4:52 am 04:52 Cloudy 75 23.9 72 22.2 90 90 S 8 13 29.96 1015 10 16 N/A
5:32 am 05:32 Cloudy with Drizzle 75 23.9 72 22.2 90 90 SSE 5 7 29.95 1014 6 10 0.01 0.25
5:47 am 05:47 Cloudy with Drizzle 73 23 72 22 94 94 SSE 6 9 29.95 1014 6 10 0.01 0.25
5:52 am 05:52 Cloudy with Light Rain 75 23.9 72 22.2 90 90 SSE 5 7 29.95 1014 6 10 0.01 0.25
6:25 am 06:25 Cloudy 75 23.9 72 22.2 90 90 SSE 6 9 29.94 1014 10 16 0.00 0.00
6:48 am 06:48 Cloudy 75 24 72 22 89 89 SSE 5 7 29.94 1014 10 16 0.00 0.00
6:52 am 06:52 Cloudy 75 23.9 73 22.8 94 94 SSE 5 7 29.94 1014 10 16 0.00 0.00
7:52 am 07:52 Cloudy 76 24.4 73 22.8 91 91 SSE 9 15 29.93 1014 10 16 N/A
8:39 am 08:39 Cloudy 76 24.4 73 22.8 91 91 SSW 10 17 29.94 1014 10 16 N/A
8:45 am 08:45 Cloudy 76 24.4 74 23.3 94 94 SSW 9 15 29.94 1014 10 16 N/A
8:52 am 08:52 Cloudy 76 24.4 74 23.3 94 94 S 10 17 29.93 1014 10 16 N/A
9:52 am 09:52 Cloudy 78 25.6 74 23.3 87 87 SSW 9 15 29.93 1014 10 16 N/A
10:32 am 10:32 Mostly Cloudy 79 26.1 74 23.3 85 85 SSW 12 19 29.93 1013 10 16 N/A
10:52 am 10:52 Cloudy 81 27.2 74 23.3 79 79 SSW 12 19 29.92 1013 10 16 N/A
11:31 am 11:31 Mostly Cloudy 82 27.8 74 23.3 77 77 SSW 12 19 29.91 1013 10 16 N/A
11:52 am 11:52 Mostly Cloudy 82 27.8 74 23.3 77 77 S 13 20 29.91 1013 10 16 N/A
12:10 pm 12:10 Mostly Cloudy 83 28.3 74 23.3 74 74 SSW 8 13 29.91 1013 10 16 N/A
12:52 pm 12:52 Mostly Cloudy 83 28.3 74 23.3 74 74 SW 10 17 29.88 1012 10 16 N/A
1:52 pm 13:52 Mostly Cloudy 85 29.4 75 23.9 72 72 S 13 20 29.86 1011 10 16 N/A
2:52 pm 14:52 Cloudy 85 29.4 75 23.9 72 72 S 16 26 29.83 1010 10 16 N/A
3:52 pm 15:52 Mostly Cloudy 87 30.6 75 23.9 67 67 SSW 13 20 29.83 1010 10 16 N/A
4:52 pm 16:52 Mostly Cloudy 86 30 76 24.4 72 72 S 12 19 29.80 1009 10 16 N/A
5:52 pm 17:52 Mostly Cloudy 85 29.4 77 25 77 77 S 10 17 29.80 1009 10 16 N/A
6:52 pm 18:52 Mostly Cloudy 85 29.4 77 25 77 77 S 15 24 29.78 1009 10 16 N/A
7:52 pm 19:52 Mostly Cloudy 84 28.9 76 24.4 77 77 SSW 13 20 29.80 1009 10 16 0.00 0.00
8:52 pm 20:52 Mostly Cloudy 83 28.3 76 24.4 79 79 WNW 8 13 29.83 1010 10 16 N/A
9:52 pm 21:52 Clear 79 26.1 73 22.8 82 82 NNW 5 7 29.84 1010 10 16 N/A
10:52 pm 22:52 Partly Cloudy 79 26.1 74 23.3 85 85 N N/A 29.84 1011 10 16 N/A
11:52 pm 23:52 Partly Cloudy 78 25.6 74 23.3 87 87 N N/A 29.85 1011 10 16 N/A

Powered by AerisWeather